This is the latest recevied weather packets stored in our database for station/object NE1CU. If no packets are shown the sender has not sent any weather packets the latest 10 day(s).
| Time | Temp. | Humidity | Pressure | Rain* | Wind** | Luminosity | Snow |
|---|---|---|---|---|---|---|---|
| 1777578295 | 12.78° C | 83% | 1006.2 hPa | 0 mm | - | 219 W/m² | - |
| 1777577991 | 12.78° C | 83% | 1006.2 hPa | 0 mm | - | 252 W/m² | - |
| 1777577685 | 12.22° C | 83% | 1006.2 hPa | 0 mm | - | 195 W/m² | - |
| 1777577384 | 12.22° C | 84% | 1006.1 hPa | 0 mm | - | 212 W/m² | - |
| 1777577079 | 12.22° C | 84% | 1006.3 hPa | 0 mm | - | 168 W/m² | - |
| 1777576776 | 12.22° C | 83% | 1006.3 hPa | 0 mm | - | 148 W/m² | - |
| 1777576476 | 12.22° C | 83% | 1006.4 hPa | 0 mm | - | 188 W/m² | - |
| 1777576173 | 12.22° C | 85% | 1006.2 hPa | 0 mm | - | 206 W/m² | - |
| 1777575873 | 11.67° C | 84% | 1006.2 hPa | 0 mm | - | 229 W/m² | - |
| 1777575570 | 11.67° C | 85% | 1006.3 hPa | 0 mm | - | 207 W/m² | - |
| 1777575266 | 11.67° C | 85% | 1006.4 hPa | 0 mm | - | 182 W/m² | - |
| 1777574962 | 11.67° C | 84% | 1006.6 hPa | 0 mm | - | 174 W/m² | - |
| 1777574658 | 11.67° C | 85% | 1006.5 hPa | 0 mm | - | 190 W/m² | - |
| 1777574356 | 11.67° C | 83% | 1006.6 hPa | 0 mm | - | 156 W/m² | - |
| 1777574056 | 11.67° C | 85% | 1006.6 hPa | 0 mm | - | 180 W/m² | - |
| 1777573751 | 11.67° C | 84% | 1006.7 hPa | 0 mm | - | 167 W/m² | - |
| 1777573448 | 11.67° C | 85% | 1006.5 hPa | 0 mm | - | 135 W/m² | - |
| 1777573143 | 11.67° C | 84% | 1006.6 hPa | 0 mm | - | 145 W/m² | - |
| 1777572840 | 11.67° C | 85% | 1006.5 hPa | 0 mm | - | 232 W/m² | - |
| 1777572536 | 12.22° C | 85% | 1006.6 hPa | 0 mm | - | 243 W/m² | - |
| 1777572231 | 11.67° C | 87% | 1006.4 hPa | 0 mm | - | 376 W/m² | - |
| 1777571927 | 11.11° C | 86% | 1006.5 hPa | 0 mm | - | 162 W/m² | - |
| 1777571622 | 11.67° C | 86% | 1006.4 hPa | 0 mm | - | 100 W/m² | - |
| 1777571320 | 11.67° C | 85% | 1006.3 hPa | 0 mm | - | 121 W/m² | - |
| 1777571015 | 12.22° C | 84% | 1006.5 hPa | 0 mm | - | 101 W/m² | - |
* Rain latest hour (hover to see other rain measurements)
** Current wind speed in m/s (hover to see current wind gust speed)